Skip Page Navigation
NASA JPL Caltech
NASA Logo - Jet Propulsion Laboratory + View the NASA Portal
+ Center for Near-Earth Object Studies
JPL Home Earth Solar System Stars & Galaxies Technology
JPL Solar System Dynamics
BODIES ORBITS EPHEMERIDES TOOLS PHYSICAL DATA DISCOVERY FAQ SITE MAP
JPL Small-Body Database Browser
Search: [ help ]  
134555 (1999 RN169)
Classification: Main-belt Asteroid          SPK-ID: 2134555
Ephemeris | Orbit Diagram | Orbital Elements | Mission Design | Physical Parameters | Discovery Circumstances ]

[ show orbit diagram ]
Orbital Elements at Epoch 2459000.5 (2020-May-31.0) TDB
Reference: JPL 18 (heliocentric ecliptic J2000)
 Element Value Uncertainty (1-sigma)   Units 
e .2164407206642917 3.1239e-08  
a 2.35101409818915 9.557e-09 au
q 1.84215891248518 7.3608e-08 au
i 4.278952192534173 4.9584e-06 deg
node 312.7376635845733 5.2755e-05 deg
peri 100.5211113034942 5.4507e-05 deg
M 227.8748103767444 1.3609e-05 deg
tp 2459483.741695999294
(2021-Sep-26.24169600)
5.1441e-05 TDB
period 1316.683147670774
3.60
8.0286e-06
2.198e-08
d
yr
n .2734142991325162 1.6672e-09 deg/d
Q 2.85986928389312 1.1626e-08 au
  Orbit Determination Parameters
   # obs. used (total)      814  
   data-arc span      7168 days (19.62 yr)  
   first obs. used      1999-08-22  
   last obs. used      2019-04-07  
   planetary ephem.      DE431  
   SB-pert. ephem.      SB431-N16  
   condition code      0  
   norm. resid. RMS      .51743  
   source      ORB  
   producer      Otto Matic  
   solution date      2019-Jul-13 07:22:26  

Additional Information
 Earth MOID = .859183 au 
 Jupiter MOID = 2.52293 au 
 T_jup = 3.522 
[ show covariance matrix ]

Ephemeris | Orbit Diagram | Orbital Elements | Mission Design | Physical Parameters | Discovery Circumstances ]

Physical Parameter Table
Parameter Symbol Value Units Sigma Reference Notes
absolute magnitude H 16.0   n/a MPO320488  
diameter diameter 3.937 km 0.050 urn:nasa:pds:neowise_diameters_albedos::2.0[mainbelt] (http://adsabs.harvard.edu/abs/2011ApJ...741...68M)  
rotation period rot_per 122.389 h n/a LCDB (Rev. 2019-August); Warner et al., 2009 Result based on less than full coverage, so that the period may be wrong by 30 percent or so.
Published Reference List:
[Waszczak, A.; Chang, C.-K.; Ofeck, E.O.; Laher, F.; et al. (2015) Astron. J. 150, A75.]
geometric albedo albedo 0.060   0.007 urn:nasa:pds:neowise_diameters_albedos::2.0[mainbelt] (http://adsabs.harvard.edu/abs/2011ApJ...741...68M)  

134555 (1999 RN169)          Discovered 1999-Sep-09 by LINEAR at Socorro
Reference: 20060907/Numbers.arcLast Updated: 2006-09-10
Ephemeris | Orbit Diagram | Orbital Elements | Mission Design | Physical Parameters | Discovery Circumstances ]
ABOUT SSD CREDITS/AWARDS PRIVACY/COPYRIGHT GLOSSARY LINKS
FirstGov 2020-Oct-25 09:13 UT
(server date/time)  
NASA Home Page
Site Manager:   Ryan S. Park
Webmaster  Alan B. Chamberlin